Terminal Aerodrome Forecast
Issued by NWS Wichita, KS

Home | Current Version | Previous Version | Graphics & Text | Print | Product List | Glossary On
Versions: 1 2 3 4 5 6 7 8 9 10 11 12 13 14
000
FTUS43 KICT 282148 AAC
TAFICT
TAF AMD
KICT 282148Z 2822/2918 29015G22KT P6SM BKN090
     FM282300 35011G17KT P6SM VCTS BKN080CB
     FM290100 03007KT P6SM BKN100
     FM290600 VRB03KT P6SM SCT250=

USA.gov is the U.S. government's official web portal to all federal, state and local government web resources and services.